Вернуться в каталог

STARLINK-4718

АктивенСвязьVLEO
NORAD 53773·PAYLOAD·🇺🇸 United States

Запущен Sep 11, 2022 с Cape Canaveral Space Force Station

Loading…

Ближайшие Пролёты (ближайшие 24 часа)

TLE

СвежийSource: CelesTrak SupGP

Эпоха: Sep 15, 2026, 02:44 UTC

1 53773C 22111A   26258.11437500  .00050797  00000+0  16337-2 0  2583
2 53773  53.1593 143.5639 0001368  83.1059 112.8013 15.31672427    13

Отслеживайте STARLINK-4718 в реальном времени с AllMySat

Download on the App Store